LIC0209 LEBA-LEGE

Flight info

Callsign LIC0209
Flight time N/A
Altitude 38000
Route ALCOL N747 TOSTO M445 SOPET M985 EBROX Z26 LATRO L110 MAMUK
Aircraft A320/M-SDE3FGHIRWY/LB1

Departure

Time 2026-05-07 18:19
Airport Córdoba Airport (LEBA)

Arrival

Time N/A
Airport Girona-Costa Brava Airport (LEGE)
Time Latitude Longitude Altitude Speed Heading
2026-05-07 16:58 41.29078 2.07181 20 ft 0 kts 155°
2026-05-07 17:09 41.29080 2.07180 19 ft 2 kts 155°
2026-05-07 17:09 41.29103 2.07166 19 ft 4 kts 155°
2026-05-07 17:09 41.29126 2.07149 20 ft 4 kts 131°
2026-05-07 17:09 41.29136 2.07121 20 ft 4 kts 78°
2026-05-07 17:10 41.29134 2.07110 21 ft 0 kts 64°
2026-05-07 17:12 41.29136 2.07115 20 ft 5 kts 65°
2026-05-07 17:12 41.29165 2.07202 19 ft 13 kts 66°
2026-05-07 17:12 41.29179 2.07242 21 ft 0 kts 65°
2026-05-07 17:12 41.29181 2.07248 20 ft 2 kts 64°
2026-05-07 17:13 41.29214 2.07333 19 ft 16 kts 65°
2026-05-07 17:13 41.29253 2.07454 20 ft 15 kts 67°
2026-05-07 17:13 41.29262 2.07597 20 ft 17 kts 136°
2026-05-07 17:13 41.29170 2.07685 19 ft 17 kts 103°
2026-05-07 17:14 41.29204 2.07838 19 ft 19 kts 63°
2026-05-07 17:14 41.29265 2.08014 21 ft 23 kts 66°
2026-05-07 17:14 41.29333 2.08212 19 ft 25 kts 65°
2026-05-07 17:14 41.29352 2.08377 19 ft 18 kts 128°
2026-05-07 17:15 41.29234 2.08461 21 ft 21 kts 155°
2026-05-07 17:15 41.29146 2.08516 18 ft 1 kts 169°
2026-05-07 17:15 41.29145 2.08505 18 ft 3 kts 261°
2026-05-07 17:15 41.29160 2.08475 21 ft 5 kts 287°
2026-05-07 17:16 41.29075 2.08400 19 ft 24 kts 204°
2026-05-07 17:16 41.28908 2.08314 19 ft 28 kts 195°
2026-05-07 17:16 41.28724 2.08231 18 ft 17 kts 203°
2026-05-07 17:16 41.28649 2.08107 18 ft 17 kts 243°
2026-05-07 17:17 41.28598 2.07963 19 ft 17 kts 247°
2026-05-07 17:17 41.28550 2.07819 18 ft 17 kts 245°
2026-05-07 17:17 41.28502 2.07679 17 ft 16 kts 245°
2026-05-07 17:17 41.28455 2.07543 17 ft 16 kts 246°
2026-05-07 17:18 41.28410 2.07410 17 ft 16 kts 244°
2026-05-07 17:18 41.28327 2.07342 16 ft 15 kts 171°
2026-05-07 17:18 41.28288 2.07360 16 ft 0 kts 156°
2026-05-07 17:18 41.28287 2.07361 16 ft 2 kts 156°
2026-05-07 17:19 41.28240 2.07408 18 ft 11 kts 118°
2026-05-07 17:19 41.28243 2.07462 21 ft 0 kts 73°
2026-05-07 17:19 41.28323 2.07704 20 ft 76 kts 66°
2026-05-07 17:19 41.28653 2.08674 27 ft 150 kts 66°
2026-05-07 17:20 41.29106 2.10051 590 ft 172 kts 67°
2026-05-07 17:20 41.29605 2.11602 1361 ft 191 kts 68°
2026-05-07 17:20 41.30005 2.13339 2273 ft 201 kts 90°
2026-05-07 17:20 41.29795 2.15191 3402 ft 205 kts 104°
2026-05-07 17:21 41.29408 2.17036 4509 ft 209 kts 105°
2026-05-07 17:21 41.29030 2.18916 5638 ft 212 kts 104°
2026-05-07 17:21 41.28551 2.20850 6429 ft 235 kts 120°
2026-05-07 17:21 41.27270 2.22373 7059 ft 266 kts 155°
2026-05-07 17:22 41.25392 2.22637 8003 ft 283 kts 190°
2026-05-07 17:22 41.23629 2.21433 9111 ft 293 kts 224°
2026-05-07 17:22 41.22506 2.19174 10260 ft 299 kts 246°
2026-05-07 17:22 41.21815 2.16452 10833 ft 323 kts 256°
2026-05-07 17:23 41.21316 2.13492 11726 ft 333 kts 258°
2026-05-07 17:23 41.20836 2.10466 12789 ft 337 kts 257°
2026-05-07 17:23 41.20290 2.07417 13861 ft 340 kts 255°
2026-05-07 17:23 41.19663 2.04370 14800 ft 344 kts 253°
2026-05-07 17:24 41.18964 2.01319 15735 ft 347 kts 252°
2026-05-07 17:24 41.18213 1.98256 16660 ft 351 kts 251°
2026-05-07 17:24 41.17437 1.95172 17594 ft 354 kts 251°
2026-05-07 17:24 41.16647 1.92055 18466 ft 358 kts 251°
2026-05-07 17:25 41.15855 1.88913 19287 ft 361 kts 251°
2026-05-07 17:25 41.15064 1.85740 20095 ft 363 kts 251°
2026-05-07 17:25 41.14274 1.82545 20896 ft 366 kts 250°
2026-05-07 17:25 41.13483 1.79330 21675 ft 368 kts 250°
2026-05-07 17:26 41.12685 1.76088 22443 ft 371 kts 250°
2026-05-07 17:26 41.11890 1.72861 23195 ft 374 kts 249°
2026-05-07 17:26 41.11081 1.69574 23901 ft 376 kts 249°
2026-05-07 17:26 41.10267 1.66274 24541 ft 377 kts 249°
2026-05-07 17:27 41.09444 1.62961 25151 ft 380 kts 248°
2026-05-07 17:27 41.08614 1.59622 25750 ft 382 kts 248°
2026-05-07 17:27 41.07774 1.56267 26338 ft 385 kts 247°
2026-05-07 17:27 41.06927 1.52891 26909 ft 388 kts 247°
2026-05-07 17:28 41.06077 1.49487 27484 ft 391 kts 246°
2026-05-07 17:28 41.05222 1.46059 28050 ft 393 kts 246°
2026-05-07 17:28 41.04356 1.42607 28622 ft 396 kts 246°
2026-05-07 17:28 41.03486 1.39144 29194 ft 398 kts 245°
2026-05-07 17:29 41.02610 1.35660 29768 ft 400 kts 245°
2026-05-07 17:29 41.01727 1.32155 30254 ft 402 kts 245°
2026-05-07 17:29 41.00704 1.28736 30679 ft 397 kts 236°
2026-05-07 17:29 40.99188 1.25701 31100 ft 395 kts 230°
2026-05-07 17:30 40.97599 1.22723 31522 ft 397 kts 230°
2026-05-07 17:30 40.95995 1.19742 31932 ft 399 kts 230°
2026-05-07 17:30 40.94378 1.16749 32422 ft 399 kts 230°
2026-05-07 17:30 40.92768 1.13769 33028 ft 397 kts 231°
2026-05-07 17:31 40.91156 1.10792 33475 ft 399 kts 231°
2026-05-07 17:31 40.89536 1.07801 33920 ft 400 kts 231°
2026-05-07 17:31 40.87917 1.04814 34367 ft 400 kts 231°
2026-05-07 17:31 40.86299 1.01826 34802 ft 400 kts 232°
2026-05-07 17:32 40.84676 0.98834 35213 ft 400 kts 232°
2026-05-07 17:32 40.83051 0.95843 35611 ft 401 kts 233°
2026-05-07 17:32 40.81429 0.92850 35997 ft 401 kts 233°
2026-05-07 17:32 40.80353 0.90869 36261 ft 401 kts 233°
2026-05-07 17:33 40.78723 0.87876 36655 ft 401 kts 233°
2026-05-07 17:33 40.77091 0.84882 36915 ft 403 kts 234°
2026-05-07 17:33 40.73820 0.78883 36966 ft 403 kts 234°
2026-05-07 17:34 40.70548 0.72883 36964 ft 405 kts 234°
2026-05-07 17:34 40.67237 0.66835 36964 ft 408 kts 234°
2026-05-07 17:35 40.63917 0.60784 36961 ft 408 kts 234°
2026-05-07 17:35 40.60587 0.54733 36961 ft 408 kts 234°
2026-05-07 17:36 40.57261 0.48681 36964 ft 408 kts 234°
2026-05-07 17:36 40.53934 0.42638 36967 ft 408 kts 234°
2026-05-07 17:37 40.50598 0.36608 36970 ft 409 kts 234°
2026-05-07 17:37 40.47265 0.30594 36949 ft 410 kts 234°
2026-05-07 17:38 40.43899 0.24540 36970 ft 410 kts 234°
2026-05-07 17:38 40.40535 0.18490 36972 ft 411 kts 234°
2026-05-07 17:39 40.37163 0.12442 36973 ft 410 kts 234°
2026-05-07 17:39 40.33793 0.06399 36974 ft 411 kts 234°
2026-05-07 17:40 40.30424 0.00363 36974 ft 410 kts 234°
2026-05-07 17:40 40.27045 -0.05678 36956 ft 412 kts 235°
2026-05-07 17:41 40.23648 -0.11726 36951 ft 412 kts 236°
2026-05-07 17:41 40.20254 -0.17755 36933 ft 412 kts 236°
2026-05-07 17:42 40.16853 -0.23781 36934 ft 412 kts 236°
2026-05-07 17:42 40.13453 -0.29803 36938 ft 412 kts 236°
2026-05-07 17:43 40.10050 -0.35819 36944 ft 412 kts 236°
2026-05-07 17:43 40.06644 -0.41834 36965 ft 412 kts 236°
2026-05-07 17:44 40.03235 -0.47840 36965 ft 412 kts 235°
2026-05-07 17:44 39.99816 -0.53837 36962 ft 412 kts 236°
2026-05-07 17:45 39.96402 -0.59824 36963 ft 411 kts 236°
2026-05-07 17:45 39.93010 -0.65774 36965 ft 411 kts 236°
2026-05-07 17:46 39.89570 -0.71788 36962 ft 411 kts 236°
2026-05-07 17:46 39.86170 -0.77719 36978 ft 411 kts 236°
2026-05-07 17:47 39.82749 -0.83667 36972 ft 410 kts 236°
2026-05-07 17:47 39.79342 -0.89606 36957 ft 409 kts 237°
2026-05-07 17:48 39.75934 -0.95514 36953 ft 408 kts 237°
2026-05-07 17:48 39.72522 -1.01402 36949 ft 408 kts 236°
2026-05-07 17:49 39.69116 -1.07287 36946 ft 408 kts 237°
2026-05-07 17:49 39.65705 -1.13177 36947 ft 408 kts 237°
2026-05-07 17:50 39.62299 -1.19052 36951 ft 408 kts 237°
2026-05-07 17:50 39.58879 -1.24940 36960 ft 408 kts 237°
2026-05-07 17:51 39.55451 -1.30806 36967 ft 408 kts 237°
2026-05-07 17:51 39.52032 -1.36653 36976 ft 407 kts 237°
2026-05-07 17:52 39.48618 -1.42499 36990 ft 407 kts 237°
2026-05-07 17:52 39.45220 -1.48302 36996 ft 407 kts 237°
2026-05-07 17:53 39.41795 -1.54129 37004 ft 406 kts 238°
2026-05-07 17:53 39.38377 -1.59930 37002 ft 405 kts 238°
2026-05-07 17:54 39.34967 -1.65716 37000 ft 404 kts 238°
2026-05-07 17:54 39.31558 -1.71477 37011 ft 403 kts 239°
2026-05-07 17:55 39.28162 -1.77217 36998 ft 402 kts 239°
2026-05-07 17:55 39.24776 -1.82947 36999 ft 402 kts 239°
2026-05-07 17:56 39.21378 -1.88667 37001 ft 401 kts 239°
2026-05-07 17:56 39.17981 -1.94370 37008 ft 399 kts 239°
2026-05-07 17:57 39.15171 -1.99078 37000 ft 398 kts 239°
2026-05-07 17:57 39.11232 -2.05687 36999 ft 398 kts 239°
2026-05-07 17:58 39.07868 -2.11319 37000 ft 395 kts 239°
2026-05-07 17:58 39.04518 -2.16908 36994 ft 394 kts 239°
2026-05-07 17:59 39.01171 -2.22483 36994 ft 394 kts 239°
2026-05-07 17:59 38.97823 -2.28058 36994 ft 394 kts 239°
2026-05-07 18:00 38.94482 -2.33619 36989 ft 392 kts 239°
2026-05-07 18:00 38.91147 -2.39147 36988 ft 392 kts 239°
2026-05-07 18:01 38.87807 -2.44669 36974 ft 392 kts 239°
2026-05-07 18:01 38.84463 -2.50185 36975 ft 391 kts 238°
2026-05-07 18:02 38.79475 -2.58412 36972 ft 391 kts 239°
2026-05-07 18:03 38.76138 -2.63910 36961 ft 391 kts 238°
2026-05-07 18:03 38.72793 -2.69405 36956 ft 391 kts 238°
2026-05-07 18:04 38.69440 -2.74908 36950 ft 392 kts 238°
2026-05-07 18:04 38.66082 -2.80405 36950 ft 392 kts 238°
2026-05-07 18:05 38.62721 -2.85900 36953 ft 392 kts 238°
2026-05-07 18:05 38.59352 -2.91382 36943 ft 391 kts 238°
2026-05-07 18:06 38.55994 -2.96849 36942 ft 391 kts 238°
2026-05-07 18:06 38.52636 -3.02303 36945 ft 391 kts 238°
2026-05-07 18:07 38.49276 -3.07752 36935 ft 390 kts 238°
2026-05-07 18:07 38.45926 -3.13193 36935 ft 390 kts 238°
2026-05-07 18:08 38.42579 -3.18622 36932 ft 389 kts 238°
2026-05-07 18:08 38.39222 -3.24046 36921 ft 390 kts 238°
2026-05-07 18:09 38.35878 -3.29428 36921 ft 390 kts 238°
2026-05-07 18:09 38.32517 -3.34841 36685 ft 389 kts 238°
2026-05-07 18:09 38.30840 -3.37539 36419 ft 389 kts 238°
2026-05-07 18:10 38.29160 -3.40233 36159 ft 389 kts 238°
2026-05-07 18:10 38.27477 -3.42932 35903 ft 389 kts 238°
2026-05-07 18:10 38.25799 -3.45622 35472 ft 389 kts 238°
2026-05-07 18:10 38.24111 -3.48329 34569 ft 392 kts 238°
2026-05-07 18:11 38.22413 -3.51054 33618 ft 394 kts 238°
2026-05-07 18:11 38.21283 -3.52864 32993 ft 395 kts 238°
2026-05-07 18:11 38.19023 -3.56469 32258 ft 385 kts 238°
2026-05-07 18:11 38.17362 -3.59112 31650 ft 380 kts 238°
2026-05-07 18:12 38.15769 -3.61754 31037 ft 372 kts 242°
2026-05-07 18:12 38.14545 -3.64603 30365 ft 365 kts 251°
2026-05-07 18:12 38.13582 -3.67568 29675 ft 363 kts 252°
2026-05-07 18:12 38.12623 -3.70526 29009 ft 359 kts 251°
2026-05-07 18:13 38.11674 -3.73439 28391 ft 355 kts 251°
2026-05-07 18:13 38.10732 -3.76314 27784 ft 351 kts 251°
2026-05-07 18:13 38.09798 -3.79155 27188 ft 347 kts 251°
2026-05-07 18:13 38.08883 -3.81929 26614 ft 344 kts 251°
2026-05-07 18:14 38.07954 -3.84750 26041 ft 341 kts 250°
2026-05-07 18:14 38.07043 -3.87509 25504 ft 337 kts 250°
2026-05-07 18:14 38.06151 -3.90207 24989 ft 335 kts 250°
2026-05-07 18:14 38.05254 -3.92916 24474 ft 332 kts 250°
2026-05-07 18:15 38.04363 -3.95605 23950 ft 329 kts 250°
2026-05-07 18:15 38.03480 -3.98270 23450 ft 327 kts 250°
2026-05-07 18:15 38.02601 -4.00927 22878 ft 325 kts 250°
2026-05-07 18:15 38.01729 -4.03557 22375 ft 322 kts 250°
2026-05-07 18:16 38.00866 -4.06165 21867 ft 320 kts 250°
2026-05-07 18:16 38.00005 -4.08761 21357 ft 319 kts 250°
2026-05-07 18:16 37.99148 -4.11340 20845 ft 317 kts 250°
2026-05-07 18:16 37.98293 -4.13915 20309 ft 317 kts 250°
2026-05-07 18:17 37.97440 -4.16486 19802 ft 316 kts 250°
2026-05-07 18:17 37.96586 -4.19053 19283 ft 316 kts 250°
2026-05-07 18:17 37.95730 -4.21623 18772 ft 317 kts 250°
2026-05-07 18:17 37.94868 -4.24200 18246 ft 318 kts 250°
2026-05-07 18:18 37.94002 -4.26782 17673 ft 319 kts 250°
2026-05-07 18:18 37.93137 -4.29359 17169 ft 318 kts 250°
2026-05-07 18:18 37.92272 -4.31937 16652 ft 317 kts 250°
2026-05-07 18:18 37.91413 -4.34504 16142 ft 317 kts 249°
2026-05-07 18:19 37.90553 -4.37077 15642 ft 317 kts 249°
2026-05-07 18:19 37.89692 -4.39647 15140 ft 318 kts 248°
2026-05-07 18:19 37.88825 -4.42223 14640 ft 318 kts 248°
2026-05-07 18:19 37.87956 -4.44801 14127 ft 319 kts 248°
2026-05-07 18:20 37.87146 -4.47420 13434 ft 320 kts 256°
2026-05-07 18:20 37.86982 -4.50183 12760 ft 309 kts 277°
2026-05-07 18:20 37.87534 -4.52714 12290 ft 294 kts 295°
2026-05-07 18:20 37.88682 -4.54813 11621 ft 289 kts 314°
2026-05-07 18:21 37.90303 -4.56282 10903 ft 288 kts 333°
2026-05-07 18:21 37.92213 -4.56980 10309 ft 284 kts 353°
2026-05-07 18:21 37.94070 -4.56876 10141 ft 265 kts
2026-05-07 18:21 37.95781 -4.56118 9909 ft 257 kts 27°
2026-05-07 18:22 37.97231 -4.54759 9773 ft 263 kts 43°
2026-05-07 18:22 37.97670 -4.54209 9608 ft 262 kts 43°
2026-05-07 18:22 38.00316 -4.52571 8887 ft 259 kts
2026-05-07 18:22 38.02090 -4.52757 8454 ft 256 kts 343°
2026-05-07 18:23 38.03701 -4.53684 8022 ft 254 kts 323°
2026-05-07 18:23 38.04956 -4.55227 7595 ft 251 kts 304°
2026-05-07 18:23 38.05958 -4.57035 7181 ft 251 kts 303°
2026-05-07 18:23 38.06962 -4.58835 6788 ft 250 kts 302°
2026-05-07 18:24 38.07773 -4.60760 6381 ft 247 kts 283°
2026-05-07 18:24 38.07848 -4.62899 6009 ft 242 kts 257°
2026-05-07 18:24 38.07490 -4.64217 5776 ft 238 kts 240°
2026-05-07 18:24 38.06439 -4.65808 5373 ft 237 kts 218°
2026-05-07 18:25 38.05127 -4.67071 4999 ft 236 kts 217°
2026-05-07 18:25 38.03821 -4.68327 4639 ft 235 kts 217°
2026-05-07 18:25 38.02522 -4.69576 4290 ft 233 kts 218°
2026-05-07 18:25 38.01236 -4.70810 3952 ft 230 kts 217°
2026-05-07 18:26 37.99947 -4.71958 3482 ft 223 kts 214°
2026-05-07 18:26 37.98711 -4.73000 3370 ft 205 kts 213°
2026-05-07 18:26 37.97578 -4.73941 3323 ft 185 kts 213°
2026-05-07 18:26 37.96573 -4.74776 3226 ft 160 kts 213°
2026-05-07 18:27 37.95711 -4.75494 3136 ft 138 kts 213°
2026-05-07 18:27 37.94954 -4.76127 2924 ft 125 kts 213°
2026-05-07 18:27 37.94239 -4.76728 2740 ft 121 kts 212°
2026-05-07 18:27 37.93547 -4.77312 2552 ft 118 kts 213°
2026-05-07 18:28 37.92876 -4.77877 2385 ft 117 kts 214°
2026-05-07 18:28 37.92200 -4.78447 2210 ft 117 kts 214°
2026-05-07 18:28 37.91520 -4.79021 2039 ft 117 kts 214°
2026-05-07 18:28 37.90846 -4.79591 1866 ft 117 kts 215°
2026-05-07 18:29 37.90165 -4.80166 1690 ft 118 kts 217°
2026-05-07 18:29 37.89480 -4.80743 1514 ft 118 kts 218°
2026-05-07 18:29 37.88797 -4.81317 1343 ft 118 kts 219°
2026-05-07 18:29 37.88120 -4.81886 1166 ft 116 kts 217°
2026-05-07 18:30 37.87450 -4.82450 1005 ft 116 kts 217°
2026-05-07 18:30 37.86775 -4.83018 832 ft 116 kts 216°
2026-05-07 18:30 37.86089 -4.83539 680 ft 115 kts 212°
2026-05-07 18:30 37.85389 -4.84012 515 ft 113 kts 214°
2026-05-07 18:31 37.84718 -4.84507 332 ft 110 kts 216°
2026-05-07 18:31 37.84098 -4.84961 301 ft 80 kts 212°
2026-05-07 18:31 37.83876 -4.85127 301 ft 6 kts 235°
2026-05-07 18:31 37.83867 -4.85118 301 ft 4 kts 52°
2026-05-07 18:32 37.83929 -4.85072 302 ft 14 kts 28°
2026-05-07 18:32 37.84031 -4.85004 304 ft 23 kts 28°
2026-05-07 18:32 37.84176 -4.84903 303 ft 23 kts 28°
2026-05-07 18:32 37.84300 -4.84817 305 ft 19 kts 28°
2026-05-07 18:33 37.84354 -4.84731 309 ft 11 kts 97°
2026-05-07 18:33 37.84337 -4.84679 310 ft 0 kts 116°
2026-05-07 18:33 37.84316 -4.84618 310 ft 7 kts 107°
2026-05-07 18:34 37.84302 -4.84546 309 ft 0 kts 113°